Overview Statistics Trail Chart Weather Telemetry Raw packets
 

This is the latest recevied weather packets stored in our database for station/object W5GMO. If no packets are shown the sender has not sent any weather packets the latest 10 day(s).

<< 63 64 65 66 67 68 69 >>
Time Temp. Humidity Pressure Rain* Wind** Luminosity Snow
1788197903 30.56° C 1% 1019.4 hPa 0 mm - 392 W/m² -
1788197603 31.11° C 1% 1019.5 hPa 0 mm - 411 W/m² -
1788197298 31.67° C 1% 1019.4 hPa 0 mm - 516 W/m² -
1788196994 31.67° C 1% 1019.6 hPa 0 mm - 489 W/m² -
1788196693 31.11° C 1% 1019.7 hPa 0 mm - 454 W/m² -
1788196390 31.11° C 1% 1019.7 hPa 0 mm - 387 W/m² -
1788196086 30° C 1% 1019.6 hPa 0 mm - 410 W/m² -
1788195782 30° C 1% 1019.5 hPa 0 mm - 672 W/m² -
1788195479 30.56° C 1% 1019.7 hPa 0 mm - 837 W/m² -
1788195175 30° C 1% 1019.7 hPa 0 mm - 556 W/m² -
1788194870 30° C 1% 1019.8 hPa 0 mm - 687 W/m² -
1788194566 28.89° C 1% 1019.8 hPa 0 mm - 825 W/m² -
1788194262 28.89° C 1% 1019.8 hPa 0 mm - 333 W/m² -
1788193957 28.89° C 1% 1019.9 hPa 0 mm - 714 W/m² -
1788193656 29.44° C 1% 1020.2 hPa 0 mm - 279 W/m² -
1788193356 28.89° C 1% 1020.3 hPa 0 mm - 227 W/m² -
1788193050 28.89° C 1% 1020.4 hPa 0 mm - 268 W/m² -
1788192747 28.89° C 1% 1020.3 hPa 0 mm - 329 W/m² -
1788192446 28.89° C 1% 1020.3 hPa 0 mm - 341 W/m² -
1788192142 28.33° C 1% 1019.9 hPa 0 mm - 294 W/m² -
1788191841 28.89° C 1% 1020 hPa 0 mm - 425 W/m² -
1788191537 28.89° C 1% 1020 hPa 0 mm - 404 W/m² -
1788191233 28.89° C 1% 1019.9 hPa 0 mm - 880 W/m² -
1788190929 28.89° C 1% 1020 hPa 0 mm - 528 W/m² -
1788190627 29.44° C 1% 1019.9 hPa 0 mm - 533 W/m² -

* Rain latest hour (hover to see other rain measurements)
** Current wind speed in m/s (hover to see current wind gust speed)